Location: Unspecified
(50.7693°N, 0.0000°E)
Time: 06:54:53
(UTC+00:00)

Transit 2A - Pass Details

Date: 18 August 2020
Orbit: 591 x 967 km, 66.7° (Epoch: 20 September)

Event Time Altitude Azimuth Distance (km) Brightness Sun altitude
Rises 19:38:15 0° 242° (WSW) 3,478 9.9 -4.4°
Reaches altitude 10° 19:40:48 10° 248° (WSW) 2,588 9.4 -4.7°
Maximum altitude 19:46:37 44° 320° (NW) 1,285 7.8 -5.6°
Drops below altitude 10° 19:52:44 10° 32° (NNE) 2,716 8.8 -6.4°
Sets 19:55:28 0° 39° (NE) 3,666 9.4 -6.8°
